• In Hungary
  • List of Countries
  • For 7 days
  • Water Temperature
  • Satellite Maps
  • Weather Map
  • News
  • Weather Widgets
  • user-avatar
    Login

    Hourly Weather Lubango

    Today, 23 October, Tuesday

    Time Temperature Precipitation Wind Pressure Humidity
    00:00 +18°C° 0.3 mm 2 mps 610 mmHg 72%
    01:00 +17°C° 0 mm 2 mps 609 mmHg 73%
    02:00 +17°C° 0.7 mm 2 mps 609 mmHg 75%
    03:00 +17°C° 0.7 mm 2 mps 609 mmHg 77%
    04:00 +17°C° 0.7 mm 2 mps 609 mmHg 78%
    05:00 +17°C° 0.7 mm 2 mps 609 mmHg 75%
    06:00 +18°C° 0.7 mm 2 mps 610 mmHg 72%
    07:00 +19°C° 0 mm 3 mps 611 mmHg 66%
    08:00 +20°C° 0.7 mm 2 mps 611 mmHg 60%
    09:00 +23°C° 0.7 mm 2 mps 612 mmHg 54%
    10:00 +24°C° 0.7 mm 2 mps 612 mmHg 49%
    11:00 +25°C° 0.9 mm 2 mps 612 mmHg 47%
    12:00 +25°C° 0.9 mm 1 mps 612 mmHg 45%
    13:00 +26°C° 0.9 mm 1 mps 611 mmHg 43%
    14:00 +25°C° 1.1 mm 1 mps 611 mmHg 46%
    15:00 +24°C° 1.1 mm 1 mps 611 mmHg 49%
    16:00 +24°C° 1.1 mm 1 mps 610 mmHg 51%
    17:00 +22°C° 1.2 mm 1 mps 610 mmHg 56%
    18:00 +21°C° 1.2 mm 1 mps 610 mmHg 61%
    19:00 +19°C° 1.2 mm 2 mps 610 mmHg 66%
    20:00 +20°C° 0.9 mm 1 mps 610 mmHg 68%
    21:00 +19°C° 0.9 mm 1 mps 611 mmHg 70%
    22:00 +19°C° 0.9 mm 1 mps 611 mmHg 72%
    23:00 +18°C° 0.7 mm 1 mps 611 mmHg 73%

    Tomorrow, 24 October, Wednesday

    Time Temperature Precipitation Wind Pressure Humidity
    00:00 +18°C° 0.7 mm 1 mps 610 mmHg 74%
    01:00 +18°C° 0.7 mm 1 mps 610 mmHg 75%
    02:00 +16°C° 0.7 mm 0 mps 610 mmHg 75%
    03:00 +16°C° 0.7 mm 0 mps 610 mmHg 76%
    04:00 +16°C° 0.7 mm 0 mps 609 mmHg 76%
    05:00 +16°C° 0.6 mm 0 mps 610 mmHg 75%
    06:00 +16°C° 0.6 mm 0 mps 610 mmHg 73%
    07:00 +17°C° 0.6 mm 0 mps 610 mmHg 71%
    08:00 +18°C° 0.3 mm 0 mps 611 mmHg 65%
    09:00 +22°C° 0.3 mm 1 mps 611 mmHg 58%
    10:00 +24°C° 0.3 mm 1 mps 612 mmHg 52%
    11:00 +24°C° 1 mm 1 mps 612 mmHg 51%
    12:00 +24°C° 1 mm 2 mps 611 mmHg 49%
    13:00 +25°C° 1 mm 2 mps 611 mmHg 48%
    14:00 +24°C° 2.2 mm 3 mps 611 mmHg 51%
    15:00 +22°C° 2.2 mm 3 mps 610 mmHg 53%
    16:00 +22°C° 2.2 mm 3 mps 610 mmHg 55%
    17:00 +21°C° 1.9 mm 3 mps 610 mmHg 60%
    18:00 +20°C° 1.9 mm 2 mps 610 mmHg 65%
    19:00 +18°C° 1.9 mm 2 mps 610 mmHg 69%
    20:00 +18°C° 1.3 mm 2 mps 610 mmHg 71%
    21:00 +18°C° 1.3 mm 1 mps 610 mmHg 73%
    22:00 +18°C° 1.3 mm 1 mps 610 mmHg 74%
    23:00 +18°C° 0.6 mm 1 mps 610 mmHg 76%

    Day after tomorrow, 25 October, Thursday

    Time Temperature Precipitation Wind Pressure Humidity
    00:00 +16°C° 0.6 mm 1 mps 610 mmHg 77%
    01:00 +16°C° 0.6 mm 1 mps 609 mmHg 78%
    02:00 +16°C° 0.6 mm 1 mps 609 mmHg 79%
    03:00 +16°C° 0.6 mm 1 mps 609 mmHg 80%
    04:00 +15°C° 0.6 mm 1 mps 608 mmHg 80%
    05:00 +16°C° 0 mm 1 mps 609 mmHg 77%
    06:00 +16°C° 0 mm 2 mps 609 mmHg 75%
    07:00 +17°C° 0 mm 2 mps 610 mmHg 72%
    08:00 +19°C° 0 mm 3 mps 610 mmHg 65%
    09:00 +20°C° 0 mm 3 mps 611 mmHg 59%
    10:00 +22°C° 0 mm 4 mps 612 mmHg 53%
    11:00 +22°C° 0.5 mm 3 mps 611 mmHg 51%
    12:00 +24°C° 0.5 mm 3 mps 611 mmHg 49%
    13:00 +25°C° 0.5 mm 2 mps 611 mmHg 47%
    14:00 +24°C° 1.1 mm 2 mps 610 mmHg 49%
    15:00 +23°C° 1.1 mm 2 mps 610 mmHg 52%
    16:00 +23°C° 1.1 mm 2 mps 609 mmHg 54%
    17:00 +21°C° 1.1 mm 2 mps 609 mmHg 58%
    18:00 +20°C° 1.1 mm 2 mps 610 mmHg 62%
    19:00 +19°C° 1.1 mm 2 mps 610 mmHg 66%
    20:00 +19°C° 0.8 mm 1 mps 610 mmHg 68%
    21:00 +19°C° 0.8 mm 1 mps 610 mmHg 70%
    22:00 +18°C° 0.8 mm 1 mps 611 mmHg 71%
    23:00 +17°C° 0.7 mm 2 mps 610 mmHg 73%

    26 October, Friday

    Time Temperature Precipitation Wind Pressure Humidity
    00:00 +17°C° 0.7 mm 2 mps 610 mmHg 74%
    01:00 +16°C° 0.7 mm 2 mps 609 mmHg 76%
    02:00 +16°C° 0.4 mm 2 mps 609 mmHg 77%
    03:00 +16°C° 0.4 mm 2 mps 609 mmHg 78%
    04:00 +16°C° 0.4 mm 2 mps 608 mmHg 79%
    05:00 +16°C° 0.3 mm 2 mps 609 mmHg 75%
    06:00 +18°C° 0.3 mm 1 mps 610 mmHg 72%
    07:00 +19°C° 0.3 mm 1 mps 610 mmHg 69%
    08:00 +19°C° 0.5 mm 2 mps 611 mmHg 62%
    09:00 +21°C° 0.5 mm 2 mps 612 mmHg 54%
    10:00 +24°C° 0.5 mm 2 mps 613 mmHg 47%
    11:00 +24°C° 1.3 mm 2 mps 612 mmHg 47%
    12:00 +25°C° 1.3 mm 2 mps 612 mmHg 47%
    13:00 +25°C° 1.3 mm 2 mps 611 mmHg 47%
    14:00 +24°C° 2.8 mm 2 mps 610 mmHg 52%
    15:00 +23°C° 2.8 mm 2 mps 610 mmHg 56%
    16:00 +21°C° 2.8 mm 2 mps 609 mmHg 61%
    17:00 +20°C° 1.6 mm 2 mps 610 mmHg 64%
    18:00 +19°C° 1.6 mm 2 mps 610 mmHg 66%
    19:00 +18°C° 1.6 mm 2 mps 610 mmHg 69%
    20:00 +18°C° 1 mm 2 mps 611 mmHg 71%
    21:00 +18°C° 1 mm 2 mps 611 mmHg 72%
    22:00 +18°C° 1 mm 1 mps 611 mmHg 73%
    23:00 +18°C° 0.6 mm 1 mps 611 mmHg 73%

    27 October, Saturday

    Time Temperature Precipitation Wind Pressure Humidity
    00:00 +17°C° 0.6 mm 2 mps 610 mmHg 73%
    01:00 +17°C° 0.6 mm 2 mps 610 mmHg 72%
    02:00 +18°C° 0.1 mm 1 mps 610 mmHg 71%
    03:00 +18°C° 0.1 mm 1 mps 609 mmHg 70%
    04:00 +16°C° 0.1 mm 1 mps 609 mmHg 69%
    05:00 +18°C° 0 mm 1 mps 610 mmHg 66%
    06:00 +19°C° 0 mm 1 mps 610 mmHg 64%
    07:00 +19°C° 0 mm 1 mps 611 mmHg 62%
    08:00 +21°C° 0.3 mm 1 mps 612 mmHg 57%
    09:00 +22°C° 0.3 mm 1 mps 612 mmHg 52%
    10:00 +24°C° 0.3 mm 1 mps 612 mmHg 47%
    11:00 +25°C° 0.8 mm 1 mps 612 mmHg 43%
    12:00 +26°C° 0.8 mm 1 mps 612 mmHg 39%
    13:00 +28°C° 0.8 mm 1 mps 612 mmHg 35%
    14:00 +27°C° 0.3 mm 1 mps 611 mmHg 36%
    15:00 +27°C° 0.3 mm 1 mps 611 mmHg 36%
    16:00 +27°C° 0.3 mm 2 mps 610 mmHg 36%
    17:00 +25°C° 2.1 mm 2 mps 610 mmHg 44%
    18:00 +22°C° 2.1 mm 3 mps 610 mmHg 53%
    19:00 +20°C° 2.1 mm 3 mps 610 mmHg 61%
    20:00 +20°C° 1 mm 3 mps 610 mmHg 63%
    21:00 +19°C° 1 mm 3 mps 610 mmHg 64%
    22:00 +18°C° 1 mm 2 mps 611 mmHg 65%
    23:00 +18°C° 0.2 mm 2 mps 610 mmHg 65%

    28 October, Sunday

    Time Temperature Precipitation Wind Pressure Humidity
    00:00 +18°C° 0.2 mm 2 mps 610 mmHg 66%
    01:00 +19°C° 0.2 mm 1 mps 610 mmHg 66%
    02:00 +19°C° 0.2 mm 1 mps 609 mmHg 65%
    03:00 +19°C° 0.2 mm 1 mps 609 mmHg 65%
    04:00 +18°C° 0.2 mm 1 mps 609 mmHg 65%
    05:00 +19°C° 0.1 mm 1 mps 609 mmHg 62%
    06:00 +20°C° 0.1 mm 1 mps 610 mmHg 59%
    07:00 +21°C° 0.1 mm 1 mps 611 mmHg 56%
    08:00 +20°C° 0.2 mm 2 mps 611 mmHg 55%
    09:00 +21°C° 0.2 mm 2 mps 611 mmHg 54%
    10:00 +23°C° 0.2 mm 2 mps 611 mmHg 53%
    11:00 +24°C° 0.4 mm 2 mps 611 mmHg 50%
    12:00 +25°C° 0.4 mm 2 mps 611 mmHg 47%
    13:00 +25°C° 0.4 mm 2 mps 610 mmHg 44%
    14:00 +25°C° 0.4 mm 2 mps 610 mmHg 43%
    15:00 +25°C° 0.4 mm 2 mps 610 mmHg 43%
    16:00 +25°C° 0.4 mm 2 mps 610 mmHg 43%
    17:00 +24°C° 0.8 mm 2 mps 609 mmHg 50%
    18:00 +21°C° 0.8 mm 2 mps 609 mmHg 56%
    19:00 +20°C° 0.8 mm 2 mps 609 mmHg 63%
    20:00 +20°C° 0.9 mm 1 mps 610 mmHg 65%
    21:00 +20°C° 0.9 mm 1 mps 610 mmHg 67%
    22:00 +20°C° 0.9 mm 1 mps 610 mmHg 69%
    23:00 +20°C° 0.2 mm 1 mps 610 mmHg 70%

    29 October, Monday

    Time Temperature Precipitation Wind Pressure Humidity
    00:00 +19°C° 0.2 mm 1 mps 609 mmHg 70%
    01:00 +19°C° 0.2 mm 1 mps 609 mmHg 71%
    02:00 +19°C° 0 mm 1 mps 609 mmHg 71%
    03:00 +18°C° 0 mm 1 mps 609 mmHg 72%
    04:00 +18°C° 0 mm 1 mps 609 mmHg 72%
    05:00 +19°C° 0 mm 1 mps 609 mmHg 69%
    06:00 +19°C° 0 mm 1 mps 610 mmHg 66%
    07:00 +20°C° 0 mm 1 mps 610 mmHg 63%
    08:00 +22°C° 0 mm 1 mps 611 mmHg 54%
    09:00 +25°C° 0 mm 1 mps 612 mmHg 46%
    10:00 +27°C° 0 mm 1 mps 613 mmHg 37%
    11:00 +28°C° 0 mm 1 mps 613 mmHg 34%
    12:00 +29°C° 0 mm 2 mps 612 mmHg 31%
    13:00 +30°C° 0 mm 2 mps 612 mmHg 28%
    14:00 +29°C° 0 mm 2 mps 611 mmHg 31%
    15:00 +28°C° 0 mm 3 mps 611 mmHg 34%
    16:00 +27°C° 0 mm 3 mps 610 mmHg 36%
    17:00 +25°C° 0 mm 3 mps 610 mmHg 41%
    18:00 +24°C° 0 mm 2 mps 610 mmHg 45%
    19:00 +21°C° 0 mm 2 mps 610 mmHg 50%
    20:00 +21°C° 0.1 mm 2 mps 610 mmHg 53%
    21:00 +20°C° 0.1 mm 2 mps 609 mmHg 56%
    22:00 +19°C° 0.1 mm 2 mps 609 mmHg 59%
    23:00 +20°C° 0 mm 1 mps 609 mmHg 60%
    Show more